Showing default

LEMUR 2 SQUIRRELCOMM, 60578

Orbit data source: Space-Track

LEMUR 2 SQUIRRELCOMM, 60578 is an American payload satellite in SSO that was launched on Fri, 16 Aug 2024 UTC via an FALCON 9 launch vehicle from the Air Force Western Test Range (AFWTR). Payload-class satellites include a variety of spacecraft equipped with specific instruments for various scientific and technological missions. These include communications satellites like Starlink; space stations such as the ISS; scientific satellites like the Hubble; Earth observation satellites from companies like Planet Labs, Umbra, and HawkEye 360; GPS; miniature CubeSats for education and research; and military/defense satellites.

Loading next visibility...
Identifier
60578, 2024-149DQ
Orbit
SSO
Country
Flag of USUS
Related business
Manufacturer
Spire/Glasgow
Mission
Operational Commercial Com/MetRO
Bus & Motor
CUBESAT 3U, Unknown motor
Mass
7.6 kg wet, 7.6 kg dry
Launch date (UTC)
2024-08-16 (1 year ago)
Launch vehicle
FALCON 9
Launch site
Air Force Western Test Range (AFWTR)
Object type
Payload
Rocket body
Debris
Shape & HBR
Box + 2 Pan, 0.5 m
Radar Cross Section
0.063 m², Medium (>0.1 m² and < 1m²)

Expand to show TLE details & history
Last TLE update: 4 hours ago

TLE from 4 hours ago
0 LEMUR 2 SQUIRRELCOMM
1 60578U 24149DQ  26035.19793875  .00008307  00000-0  58421-3 0  9992
2 60578  97.6810 116.6591 0006718 135.8928 224.2835 15.05320423 80386
Epoch: 2026-02-04T04:45Z
TLE epoch observation values (Epoch: 2026-02-04T04:45:01.907Z)
Latitude
-0.00001°
Longitude
-88.96682°
Altitude
556.919 km
Speed
7.581 km/s
True Right ascension
07h 46m 38s
True Declination
0° 00' 00"
Sunlit
Object was in full shadow at epoch
Visualization orbit readout
Latitude
Unknown
Longitude
Unknown
Altitude
Unknown
Speed
Unknown
Apparent Right ascension
Unknown
Apparent Declination
Unknown
Sunlit
N/A
Visualization observer readout
Local Sidereal Time
10:47:38
Azimuth
Unknown
Elevation
Unknown
Doppler factor
Unknown
Orbital elements
Apogee altitude
552.172 km
Perigee altitude
542.867 km
Semi-major axis
6,925.657 km
Eccentricity
0.00067
Inclination
97.681°
RAAN
116.6591°
Arg. of periapsis
135.8928°
True anomaly
224.22978°
Mean anomaly
224.2835°
Eccentric anomaly
224.25664°
Mean motion
3.76575 °/min
Orbital period
95.6 mins
BSTAR
0.00058421
Loading maneuver chart data...
Computing Atmospheric mass density...
Loading historical data...
Loading historical data...
Loading historical data...
Loading historical data...
Loading historical data...
Loading historical data...
Loading historical data...

Documentation

Showing up to 5 results
|